Regional Weather Roundup
Issued by NWS

Home | Current Version | Previous Version | Graphics & Text | Print | Product List | Glossary On
Versions: 1 2 3 4 5 6 7 8 9 10 11 12 13 14 15 16 17 18 19 20 21 22 23 24 25 26 27 28 29 30 31 32 33 34 35 36 37 38 39 40 41 42 43 44 45 46 47 48 49 50
000
ASUS44 KMEG 070010
RWRTN
TENNESSEE HOURLY STATE WEATHER ROUNDUP
NATIONAL WEATHER SERVICE MEMPHIS TN
700 PM CDT WED MAY 06 2015

TNZ002-004-019-021-049-052-054-088>092-070100-
WEST TENNESSEE

CITY           SKY/WX    TMP DP  RH WIND       PRES   REMARKS
MEMPHIS INTL   PTCLDY    81  49  32 SE8       30.04F
NWS MEMPHIS      N/A     80 N/A N/A MISG        N/A
JACKSON        PTCLDY    79  50  36 SE3       30.06F
DYERSBURG      CLEAR     81  45  28 SE7       30.05F
PARIS          CLEAR     77  54  44 SE5       30.07F
LEXINGTON      CLEAR     79  48  34 S5        30.07S
$$

TNZ008-025-027-028-033-062-065-066-070100-
NORTH MIDDLE TENNESSEE

CITY           SKY/WX    TMP DP  RH WIND       PRES   REMARKS
NASHVILLE      PTCLDY    81  55  40 CALM      30.07F
CLARKSVILLE    CLEAR     79  61  53 SE5       30.07S
SMYRNA         CLEAR     81  56  42 CALM      30.08S
COOKEVILLE     CLEAR     81  64  57 CALM      30.09S
CROSSVILLE     CLEAR     77  48  35 S5        30.14S
$$

TNZ061-075-076-078-094-096-097-070100-
SOUTH MIDDLE TENNESSEE

CITY           SKY/WX    TMP DP  RH WIND       PRES   REMARKS
FAYETTEVILLE     N/A     77  50  38 S3        30.10S
TULLAHOMA      CLEAR     75  46  35 CALM      30.11S
WINCHESTER     CLEAR     79  54  41 S3        30.11R
MCMINNVILLE    PTCLDY    81  61  50 CALM      30.10S
COLUMBIA       CLEAR     79  59  50 S5        30.07S
SHELBYVILLE    CLEAR     77  55  47 S3        30.10S
$$

TNZ017-018-042-046-047-070100-
NORTHEAST TENNESSEE

CITY           SKY/WX    TMP DP  RH WIND       PRES   REMARKS
TRI CITIES     MOCLDY    68  61  78 N3        30.14S
$$

TNZ012-013-036-069-073-074-070100-
CENTRAL EAST TENNESSEE

CITY           SKY/WX    TMP DP  RH WIND       PRES   REMARKS
KNOXVILLE      PTCLDY    81  54  39 NW5       30.07S
OAK RIDGE      CLEAR     83  54  36 CALM      30.09S
GATLINBURG     MOCLDY    81  54  39 CALM      30.07S
MORRISTOWN       N/A     79  55  44 NE6       30.11R
$$

TNZ083-085-099-070100-
SOUTHEAST TENNESSEE

CITY           SKY/WX    TMP DP  RH WIND       PRES   REMARKS
CHATTANOOGA    PTCLDY    81  52  36 S3        30.09S
$$

SKY/WX REPORTED AS FAIR MEANS FEW OR NO CLOUDS BELOW
12 THOUSAND FEET.




USA.gov is the U.S. government's official web portal to all federal, state and local government web resources and services.